When you browse on this site, cookies collect data to enhance your experience and personalize the content and advertising you see.
Visit our Privacy Policy to learn more. By continuing to use the site, you agree to this use of cookies and data.
  • In Sweden
  • List of Countries
  • For 7 days
  • Water Temperature
  • Weather Map
  • Weather Widgets
  • user-avatar
    Login

    Hourly Weather Kulikovo

    Today, 20 September, Friday

    Time Temperature Precipitation Wind Pressure Humidity
    00:00 +4°C° 0 mm 3 mps 737 mmHg 91%
    01:00 +4°C° 0 mm 3 mps 738 mmHg 89%
    02:00 +3°C° 0 mm 3 mps 738 mmHg 91%
    03:00 +3°C° 0 mm 2 mps 739 mmHg 92%
    04:00 +3°C° 0 mm 2 mps 740 mmHg 95%
    05:00 +3°C° 0 mm 2 mps 740 mmHg 94%
    06:00 +3°C° 0 mm 2 mps 741 mmHg 92%
    07:00 +3°C° 0 mm 3 mps 741 mmHg 91%
    08:00 +4°C° 0 mm 3 mps 742 mmHg 83%
    09:00 +5°C° 0 mm 3 mps 742 mmHg 76%
    10:00 +7°C° 0 mm 3 mps 743 mmHg 68%
    11:00 +8°C° 0.1 mm 3 mps 743 mmHg 64%
    12:00 +8°C° 0.1 mm 3 mps 743 mmHg 60%
    13:00 +9°C° 0.1 mm 3 mps 744 mmHg 57%
    14:00 +9°C° 0.1 mm 3 mps 744 mmHg 57%
    15:00 +9°C° 0.1 mm 3 mps 744 mmHg 56%
    16:00 +9°C° 0.1 mm 2 mps 744 mmHg 56%
    17:00 +7°C° 0 mm 2 mps 745 mmHg 64%
    18:00 +6°C° 0 mm 1 mps 745 mmHg 71%
    19:00 +5°C° 0 mm 1 mps 745 mmHg 79%
    20:00 +4°C° 0 mm 1 mps 745 mmHg 81%
    21:00 +4°C° 0 mm 1 mps 745 mmHg 83%
    22:00 +3°C° 0 mm 1 mps 746 mmHg 86%
    23:00 +3°C° 0 mm 1 mps 746 mmHg 86%

    Tomorrow, 21 September, Saturday

    Time Temperature Precipitation Wind Pressure Humidity
    00:00 +3°C° 0 mm 1 mps 745 mmHg 87%
    01:00 +3°C° 0 mm 1 mps 745 mmHg 88%
    02:00 +3°C° 0 mm 1 mps 745 mmHg 90%
    03:00 +3°C° 0 mm 1 mps 745 mmHg 91%
    04:00 +4°C° 0 mm 1 mps 745 mmHg 93%
    05:00 +4°C° 0 mm 1 mps 745 mmHg 94%
    06:00 +4°C° 0 mm 1 mps 745 mmHg 95%
    07:00 +4°C° 0 mm 1 mps 744 mmHg 95%
    08:00 +6°C° 0 mm 1 mps 744 mmHg 90%
    09:00 +7°C° 0 mm 1 mps 744 mmHg 84%
    10:00 +7°C° 0 mm 2 mps 744 mmHg 79%
    11:00 +7°C° 0.1 mm 2 mps 743 mmHg 81%
    12:00 +7°C° 0.1 mm 2 mps 743 mmHg 84%
    13:00 +7°C° 0.1 mm 2 mps 742 mmHg 87%
    14:00 +7°C° 0.6 mm 2 mps 742 mmHg 87%
    15:00 +8°C° 0.6 mm 2 mps 742 mmHg 88%
    16:00 +8°C° 0.6 mm 2 mps 741 mmHg 88%
    17:00 +6°C° 0.5 mm 2 mps 741 mmHg 91%
    18:00 +6°C° 0.5 mm 1 mps 741 mmHg 94%
    19:00 +4°C° 0.5 mm 1 mps 740 mmHg 97%
    20:00 +4°C° 0 mm 1 mps 740 mmHg 97%
    21:00 +4°C° 0 mm 1 mps 740 mmHg 97%
    22:00 +3°C° 0 mm 1 mps 739 mmHg 98%
    23:00 +3°C° 0 mm 1 mps 739 mmHg 98%

    Day after tomorrow, 22 September, Sunday

    Time Temperature Precipitation Wind Pressure Humidity
    00:00 +3°C° 0 mm 1 mps 739 mmHg 98%
    01:00 +3°C° 0 mm 1 mps 739 mmHg 98%
    02:00 +3°C° 0 mm 1 mps 738 mmHg 98%
    03:00 +3°C° 0 mm 1 mps 738 mmHg 97%
    04:00 +2°C° 0 mm 1 mps 737 mmHg 97%
    05:00 +2°C° 0 mm 1 mps 737 mmHg 97%
    06:00 +2°C° 0 mm 1 mps 737 mmHg 97%
    07:00 +1°C° 0 mm 2 mps 737 mmHg 96%
    08:00 +2°C° 0 mm 2 mps 736 mmHg 93%
    09:00 +3°C° 0 mm 2 mps 736 mmHg 90%
    10:00 +4°C° 0 mm 2 mps 736 mmHg 86%
    11:00 +5°C° 0.1 mm 2 mps 736 mmHg 81%
    12:00 +6°C° 0.1 mm 2 mps 736 mmHg 76%
    13:00 +7°C° 0.1 mm 3 mps 736 mmHg 71%
    14:00 +7°C° 0 mm 2 mps 735 mmHg 67%
    15:00 +7°C° 0 mm 2 mps 735 mmHg 62%
    16:00 +7°C° 0 mm 2 mps 735 mmHg 58%
    17:00 +6°C° 0 mm 2 mps 735 mmHg 66%
    18:00 +5°C° 0 mm 1 mps 735 mmHg 74%
    19:00 +4°C° 0 mm 1 mps 735 mmHg 82%
    20:00 +3°C° 0 mm 1 mps 735 mmHg 85%
    21:00 +2°C° 0 mm 1 mps 735 mmHg 89%
    22:00 +2°C° 0 mm 1 mps 735 mmHg 92%
    23:00 +2°C° 0 mm 1 mps 735 mmHg 93%

    23 September, Monday

    Time Temperature Precipitation Wind Pressure Humidity
    00:00 +1°C° 0 mm 1 mps 735 mmHg 94%
    01:00 +1°C° 0 mm 1 mps 734 mmHg 95%
    02:00 +1°C° 0 mm 1 mps 734 mmHg 95%
    03:00 0°C° 0 mm 1 mps 734 mmHg 95%
    04:00 -1°C° 0 mm 0 mps 734 mmHg 95%
    05:00 -1°C° 0 mm 0 mps 734 mmHg 93%
    06:00 0°C° 0 mm 0 mps 734 mmHg 92%
    07:00 0°C° 0 mm 0 mps 734 mmHg 91%
    08:00 +3°C° 0 mm 1 mps 734 mmHg 82%
    09:00 +5°C° 0 mm 1 mps 733 mmHg 74%
    10:00 +7°C° 0 mm 1 mps 733 mmHg 65%
    11:00 +7°C° 0 mm 2 mps 733 mmHg 62%
    12:00 +7°C° 0 mm 2 mps 732 mmHg 58%
    13:00 +8°C° 0 mm 2 mps 732 mmHg 54%
    14:00 +8°C° 0.1 mm 3 mps 732 mmHg 58%
    15:00 +7°C° 0.1 mm 3 mps 732 mmHg 62%
    16:00 +7°C° 0.1 mm 3 mps 731 mmHg 66%
    17:00 +4°C° 0 mm 3 mps 732 mmHg 71%
    18:00 +3°C° 0 mm 3 mps 732 mmHg 76%
    19:00 +2°C° 0 mm 3 mps 732 mmHg 81%
    20:00 +2°C° 0 mm 2 mps 733 mmHg 82%
    21:00 +1°C° 0 mm 2 mps 734 mmHg 84%
    22:00 -1°C° 0 mm 2 mps 734 mmHg 86%
    23:00 -1°C° 0 mm 2 mps 735 mmHg 89%

    24 September, Tuesday

    Time Temperature Precipitation Wind Pressure Humidity
    00:00 -2°C° 0 mm 2 mps 736 mmHg 91%
    01:00 0°C° 0 mm 1 mps 736 mmHg 94%
    02:00 -2°C° 0 mm 2 mps 737 mmHg 95%
    03:00 -2°C° 0 mm 2 mps 737 mmHg 95%
    04:00 -2°C° 0 mm 2 mps 738 mmHg 96%
    05:00 -2°C° 0.1 mm 2 mps 738 mmHg 95%
    06:00 -1°C° 0.1 mm 2 mps 739 mmHg 94%
    07:00 0°C° 0.1 mm 3 mps 739 mmHg 94%
    08:00 0°C° 0 mm 3 mps 739 mmHg 89%
    09:00 +1°C° 0 mm 3 mps 740 mmHg 85%
    10:00 +1°C° 0 mm 3 mps 740 mmHg 80%
    11:00 +2°C° 0.1 mm 3 mps 740 mmHg 79%
    12:00 +2°C° 0.1 mm 3 mps 741 mmHg 78%
    13:00 +2°C° 0.1 mm 3 mps 741 mmHg 77%
    14:00 +2°C° 0.2 mm 3 mps 741 mmHg 75%
    15:00 +3°C° 0.2 mm 3 mps 741 mmHg 74%
    16:00 +3°C° 0.2 mm 3 mps 741 mmHg 72%
    17:00 +2°C° 0.1 mm 2 mps 741 mmHg 80%
    18:00 +1°C° 0.1 mm 2 mps 742 mmHg 87%
    19:00 +1°C° 0.1 mm 1 mps 742 mmHg 94%
    20:00 +1°C° 0 mm 1 mps 742 mmHg 95%
    21:00 +1°C° 0 mm 1 mps 742 mmHg 95%
    22:00 -1°C° 0 mm 2 mps 742 mmHg 95%
    23:00 -2°C° 0 mm 2 mps 742 mmHg 96%

    25 September, Wednesday

    Time Temperature Precipitation Wind Pressure Humidity
    00:00 -2°C° 0 mm 2 mps 742 mmHg 97%
    01:00 -3°C° 0 mm 2 mps 742 mmHg 97%
    02:00 -2°C° 0 mm 2 mps 743 mmHg 96%
    03:00 -2°C° 0 mm 3 mps 743 mmHg 96%
    04:00 -2°C° 0 mm 3 mps 743 mmHg 95%
    05:00 -1°C° 0 mm 3 mps 743 mmHg 93%
    06:00 -2°C° 0 mm 4 mps 743 mmHg 91%
    07:00 -1°C° 0 mm 4 mps 743 mmHg 89%
    08:00 -1°C° 0.1 mm 4 mps 743 mmHg 90%
    09:00 -1°C° 0.1 mm 4 mps 743 mmHg 91%
    10:00 0°C° 0.1 mm 5 mps 743 mmHg 92%
    11:00 0°C° 0.1 mm 5 mps 744 mmHg 87%
    12:00 +1°C° 0.1 mm 5 mps 744 mmHg 82%
    13:00 +2°C° 0.1 mm 5 mps 744 mmHg 76%
    14:00 +1°C° 0 mm 5 mps 744 mmHg 77%
    15:00 +1°C° 0 mm 4 mps 745 mmHg 77%
    16:00 +1°C° 0 mm 4 mps 745 mmHg 78%
    17:00 +1°C° 0 mm 4 mps 745 mmHg 81%
    18:00 0°C° 0 mm 4 mps 745 mmHg 85%
    19:00 0°C° 0 mm 3 mps 745 mmHg 89%
    20:00 0°C° 0 mm 3 mps 745 mmHg 91%
    21:00 0°C° 0 mm 3 mps 745 mmHg 92%
    22:00 -1°C° 0 mm 3 mps 744 mmHg 94%
    23:00 -1°C° 0 mm 3 mps 744 mmHg 94%
    Show more